Rocky Mount, NC

3:20 AM EDT on August 18, 2017 (GMT -0400)
Rocky Mount-Wilson Regional

Weather History for KRWI - November, 2011

Change the Weather History Date:

Thursday, November 17, 2011

  Actual Average Record
Temperature  
Mean Temperature 54 °F -  
Max Temperature 70 °F 63 °F 79 °F (1957)
Min Temperature 37 °F 37 °F 22 °F (1967)
Degree Days  
Heating Degree Days 12    
Growing Degree Days 4 (Base 50)    
Moisture  
Dew Point 44 °F    
Average Humidity 82    
Maximum Humidity 94    
Minimum Humidity 53    
Precipitation  
Precipitation 0.15 in - - ()
Sea Level Pressure  
Sea Level Pressure 29.97 in    
Wind  
Wind Speed 12 mph (NNW)    
Max Wind Speed 25 mph    
Max Gust Speed 33 mph    
Visibility 8 miles    
Events Rain    
Averages and records for this station are not official NWS values.
T = Trace of Precipitation, MM = Missing Value Source: NWS Daily Summary

Daily Weather History Graph

Daily Weather History Graph

Search for Another Location

Airport or City:

Trip Planner

Search our weather history database for the weather conditions in past years. The results will help you decide how hot, cold, wet, or windy it might be!

Date:

Astronomy

Nov. 17, 2011 Rise Set
Actual Time 6:49 AM EST 5:03 PM EST
Civil Twilight 6:22 AM EST 5:30 PM EST
Nautical Twilight 5:51 AM EST 6:01 PM EST
Astronomical Twilight 5:20 AM EST 6:31 PM EST
Moon 11:17 PM EST (11/17) 12:00 PM EST (11/17)
Length of Visible Light 11h 08m
Length of Day
10h 13m
Waning Gibbous, 60% of the Moon is Illuminated
Nov 17
Waning Gibbous
Nov 18
Last Quarter
Nov 25
New
Dec 2
First Quarter
Dec 10
Full

Hourly Weather History & Observations

Time (EST) Temp. Windchill Dew Point Humidity Pressure Visibility Wind Dir Wind Speed Gust Speed Precip Events Conditions
12:53 AM 70.0 °F - 62.1 °F 76% 29.80 in 10.0 mi SSW 10.4 mph 21.9 mph N/A   Overcast
1:04 AM 69.8 °F - 62.6 °F 78% 29.80 in 10.0 mi SW 10.4 mph - N/A   Overcast
1:49 AM 59.0 °F - 55.4 °F 88% 29.82 in 9.0 mi NNW 16.1 mph - 0.00 in Rain Light Rain
1:53 AM 59.0 °F - 55.0 °F 87% 29.82 in 8.0 mi NNW 12.7 mph - 0.00 in Rain Light Rain
2:00 AM 57.2 °F - 55.4 °F 94% 29.82 in 7.0 mi North 9.2 mph - 0.01 in Rain Light Rain
2:38 AM 55.4 °F - 51.8 °F 88% 29.83 in 10.0 mi North 13.8 mph - 0.04 in   Overcast
2:53 AM 55.4 °F - 51.8 °F 88% 29.84 in 10.0 mi North 11.5 mph - N/A   Overcast
3:53 AM 55.0 °F - 51.1 °F 86% 29.83 in 10.0 mi North 12.7 mph - N/A   Overcast
4:53 AM 54.0 °F - 50.0 °F 86% 29.83 in 10.0 mi North 12.7 mph 20.7 mph N/A   Overcast
5:53 AM 54.0 °F - 50.0 °F 86% 29.84 in 10.0 mi NNE 9.2 mph - N/A   Overcast
6:53 AM 53.1 °F - 48.9 °F 86% 29.86 in 10.0 mi North 16.1 mph 19.6 mph 0.00 in   Overcast
7:53 AM 51.1 °F - 48.9 °F 92% 29.85 in 3.0 mi NNE 10.4 mph - 0.00 in   Overcast
8:53 AM 51.1 °F - 48.9 °F 92% 29.86 in 3.0 mi NNE 10.4 mph - 0.00 in Rain Light Rain
9:21 AM 51.8 °F - 48.2 °F 88% 29.87 in 2.0 mi North 12.7 mph - 0.01 in Rain Light Rain
9:29 AM 50.0 °F - 48.2 °F 94% 29.86 in 1.8 mi North 11.5 mph - 0.05 in Rain Rain
9:35 AM 50.0 °F - 46.4 °F 87% 29.86 in 3.0 mi North 11.5 mph - 0.05 in Rain Light Rain
9:53 AM 50.0 °F - 46.9 °F 89% 29.87 in 3.0 mi North 18.4 mph 24.2 mph 0.06 in Rain Light Rain
10:21 AM 48.2 °F - 46.4 °F 93% 29.93 in 2.5 mi NW 10.4 mph 23.0 mph 0.02 in Rain Light Rain
10:43 AM 46.4 °F 37.9 °F 42.8 °F 87% 29.93 in 3.0 mi North 25.3 mph 33.4 mph 0.06 in Rain Light Rain
10:50 AM 44.6 °F 36.4 °F 41.0 °F 87% 29.94 in 4.0 mi NNW 20.7 mph 33.4 mph 0.08 in Rain Rain
10:53 AM 45.0 °F 37.6 °F 41.0 °F 86% 29.95 in 4.0 mi NNW 17.3 mph 32.2 mph 0.08 in Rain Light Rain
11:02 AM 44.6 °F 36.6 °F 41.0 °F 87% 29.96 in 5.0 mi NNW 19.6 mph 27.6 mph 0.02 in Rain Rain
11:53 AM 44.6 °F 38.1 °F 41.0 °F 87% 29.94 in 10.0 mi North 13.8 mph 23.0 mph N/A Rain Light Rain
12:45 PM 44.6 °F 37.4 °F 41.0 °F 87% 29.97 in 10.0 mi NNW 16.1 mph 21.9 mph 0.01 in   Overcast
12:53 PM 45.0 °F 38.9 °F 39.9 °F 82% 29.96 in 10.0 mi North 12.7 mph 24.2 mph 0.01 in   Overcast
1:22 PM 44.6 °F 37.8 °F 39.2 °F 81% 29.99 in 10.0 mi NNW 15.0 mph 21.9 mph N/A   Overcast
1:53 PM 46.0 °F 40.2 °F 39.9 °F 79% 30.01 in 10.0 mi NNW 12.7 mph - N/A   Overcast
2:53 PM 46.0 °F 41.0 °F 39.9 °F 79% 30.02 in 10.0 mi NNW 10.4 mph - N/A   Overcast
3:53 PM 46.9 °F - 39.0 °F 74% 30.06 in 10.0 mi NNW 6.9 mph - N/A   Overcast
4:53 PM 45.0 °F 42.6 °F 39.0 °F 80% 30.09 in 10.0 mi North 4.6 mph - N/A   Mostly Cloudy
5:53 PM 45.0 °F - 41.0 °F 86% 30.14 in 10.0 mi Calm Calm - N/A   Overcast
6:53 PM 43.0 °F 41.3 °F 39.0 °F 86% 30.18 in 10.0 mi NW 3.5 mph - N/A   Clear
7:53 PM 44.1 °F 38.1 °F 30.9 °F 60% 30.22 in 10.0 mi NW 11.5 mph - N/A   Clear
8:53 PM 42.1 °F 36.1 °F 26.1 °F 53% 30.25 in 10.0 mi NW 10.4 mph 19.6 mph N/A   Clear
9:53 PM 41.0 °F 35.2 °F 25.0 °F 53% 30.29 in 10.0 mi WNW 9.2 mph - N/A   Clear
10:53 PM 37.9 °F 34.4 °F 24.1 °F 57% 30.31 in 10.0 mi WNW 4.6 mph - N/A   Clear
11:53 PM 37.0 °F 33.3 °F 26.1 °F 65% 30.32 in 10.0 mi WNW 4.6 mph - N/A   Clear